Location: ??
(35.5672°N, 139.6509°E)
Time: 01:41:03
(UTC+00:00)

Daily predictions for brighter satellites

Satellite Brightness Start Highest point End
(mag) Time Altitude Azimuth Time Altitude Azimuth Time Altitude Azimuth
UNK 3.7 07:50:26 10° NNE 07:55:02 85° ESE 07:59:34 10° SSW
IRS-1C 4.5 07:52:42 10° SE 07:57:40 42° ENE 08:02:39 10° N
Gbstr 26 Del rocket 2.9 07:53:24 10° SW 07:57:43 66° SE 08:01:31 10° NE
COSMO-SKYMED 1 4.2 07:57:32 10° ENE 07:59:41 14° E 08:01:50 10° SE
Thor Agena Rocket 3.5 07:55:04 10° SSE 08:00:17 75° ENE 08:05:28 10° N
Milstar 3 Cent rocket 4.5 07:53:46 10° WSW 08:02:17 62° S 08:21:09 10° E
SL-16 R/B 3.6 07:57:22 10° N 08:03:16 46° WNW 08:09:06 10° SW
Cosmos 1602 Rocket 4.0 08:03:14 10° N 08:07:23 40° E 08:11:27 10° SSE
SJ-12 4.1 08:05:00 10° SE 08:08:32 41° ENE 08:12:06 10° N
Cosmos 1933 3.8 08:06:21 10° SSE 08:09:50 35° E 08:13:21 10° NNE
YAOGAN 1 4.1 08:10:43 10° ESE 08:13:07 15° ENE 08:15:31 10° NNE
Cosmos 1503 Rocket 4.0 08:07:58 10° S 08:13:13 76° ESE 08:18:27 10° NNE
USA 238 DEB 4.3 08:08:23 10° SSE 08:13:19 28° ESE 08:18:08 12° NE
USA 238 4.4 08:08:30 10° SSE 08:13:26 28° ESE 08:18:11 12° ENE
NOSS 2-3 (C) 4.2 08:12:58 10° S 08:16:00 25° ESE 08:18:08 15° ENE
USA 290 3.2 08:14:49 10° N 08:17:38 26° ENE 08:20:26 10° SE
MOS 1 Rocket 3.6 08:14:20 10° SSE 08:18:50 48° ENE 08:23:38 10° N
CZ-2D R/B 2.7 08:16:30 10° SSE 08:19:35 59° ENE 08:22:40 10° N
Cosmos 1354 Rocket 4.1 08:15:22 10° S 08:20:32 59° ESE 08:25:42 10° NNE
IRIDIUM 104 4.3 08:20:07 10° N 08:25:20 73° E 08:30:32 10° S
Helios 1A Rocket 3.8 08:27:14 19° E 08:27:55 20° E 08:30:27 10° SE
Cosmos 2297 Rocket 2.2 08:25:08 10° NNW 08:30:43 57° ENE 08:36:15 10° SE
SAR-Lupe-3 3.8 08:30:27 10° N 08:32:58 74° WNW 08:35:28 10° SSW
Cosmos 1733 4.3 08:31:33 10° NW 08:33:01 21° W 08:34:30 10° SSW
ATLAS CENTAUR R/B 1.0 08:30:43 10° NNW 08:33:45 38° ENE 08:36:02 15° ESE
IRIDIUM 114 4.3 08:29:14 10° N 08:34:28 90° NNW 08:39:41 10° S
USA 307 3.5 08:35:15 10° W 08:35:33 12° W 08:35:33 12° W
Meteor 1-25 Rocket 4.3 08:31:15 10° N 08:36:58 56° E 08:42:35 10° SSE
Cosmos 1743 3.0 08:35:42 10° NNW 08:38:53 56° W 08:42:02 10° S
Cosmos-2242 4.1 08:37:45 10° SE 08:40:55 22° E 08:40:55 22° E
Cosmos 1825 Rocket 3.7 08:37:22 10° N 08:41:33 46° E 08:45:40 10° SSE
BlueWalker 3 2.1 08:42:36 10° NNW 08:46:06 43° NE 08:47:09 33° E
IRS-P3 4.1 08:42:17 10° SSE 08:47:36 88° ENE 08:52:56 10° NNW
Cosmos 1867 4.3 08:44:03 10° N 08:48:54 32° NE 08:50:47 25° E
Meteor 1-5 Rocket 4.4 08:44:19 10° N 08:49:25 44° ENE 08:54:38 10° SSE
Cosmos 2058 Rocket 3.7 08:45:35 10° SSE 08:49:32 33° E 08:50:32 29° ENE
Cosmos 1980 Rocket 2.5 08:45:23 10° S 08:50:46 46° ESE 08:53:55 23° NE
Cosmos 1655 Rocket 4.1 08:45:00 10° N 08:51:03 50° E 08:57:02 10° SSE
Cosmos 1461 4.5 08:50:23 10° WSW 08:53:46 28° NW 08:57:04 11° N
NOSS 2-3 (E) 3.2 08:50:45 10° SW 08:54:32 73° WNW 08:56:22 27° NNE
Aureole 1 Rocket 3.3 08:53:43 10° S 08:57:18 42° E 08:58:10 37° ENE
NOSS 2-3 (D) 3.2 08:53:33 10° SW 08:57:24 75° WNW 08:59:04 31° NNE
BREEZE-M DEB (TANK) 3.1 08:53:24 10° WSW 08:58:38 52° NW 08:59:32 35° NNE
SL-19 R/B 4.4 08:53:45 10° SE 08:58:43 44° ENE 09:03:54 10° N
SJ-7 4.4 08:58:39 10° SSE 09:06:34 - N 09:01:43 45° ESE
ARIANE 5 R/B 4.0 09:02:07 10° SSW 09:06:45 38° W 09:11:28 10° NNW
Cosmos 2151 4.5 09:02:56 10° NNW 09:06:46 37° W 09:10:35 10° SSW
Cosmos 372 Rocket 4.0 09:01:47 10° S 09:06:48 53° ESE 09:08:30 37° NE
Cosmos 724 4.2 09:01:25 10° NNW 09:07:27 84° ENE 09:13:17 10° SSE
Meteor 2-20 Rocket 4.5 09:02:07 10° S 09:08:19 58° E 09:13:42 13° NNE
USA 81 4.1 09:03:59 10° N 09:09:06 51° E 09:14:11 10° SSE
NOAA 6 4.2 09:04:45 10° SE 09:09:35 45° ENE 09:14:25 10° N
Cosmos 2263 Rocket 3.4 09:06:27 10° N 09:09:24 24° NNE 09:09:24 24° NNE
SPOT 1/Viking Rocket 3.6 09:06:46 10° S 09:11:57 80° WSW 09:17:11 10° NNW
Resurs 1-3 3.4 09:12:11 10° SSE 09:16:27 78° ENE 09:20:46 10° N
Cosmos 1076 Rocket 3.3 09:14:06 10° N 09:18:25 79° E 09:22:43 10° S
Cosmos 2227 Rocket 2.1 09:16:07 10° NNW 09:21:44 64° ENE 09:25:23 22° SE
CZ-4C R/B 3.0 09:17:55 10° NNW 09:25:30 77° ENE 09:34:34 10° SE
PSLV R/B 3.5 09:23:44 10° SSE 09:31:18 13° NNW 09:31:47 10° NNW
IRAS Rocket 4.1 09:24:43 10° SSE 09:30:13 86° ENE 09:35:43 10° NNW
Cosmos 1697 Rocket 4.3 09:27:54 10° WSW 09:32:49 31° WNW 09:37:39 11° N
CZ-2D R/B 4.4 09:30:05 10° S 09:34:08 47° W 09:38:12 10° NNW
COSMO-SKYMED 1 3.8 09:32:33 18° NNW 09:35:06 37° WNW 09:38:54 10° SW
ATLAS 2A CENTAUR R/B 4.2 09:28:25 10° W 09:41:26 34° SSW 09:44:08 22° SSE
Cosmos 1607 4.5 09:35:28 10° NW 09:41:35 57° WSW 09:47:44 10° SSE
YAOGAN 1 3.8 09:44:36 10° SSW 09:48:35 40° W 09:52:36 10° NNW
Meteor 1-26 Rocket 4.4 09:45:03 10° SSW 09:50:27 65° W 09:52:06 43° NNW
H-II Stage 2 4.2 09:47:28 10° W 09:51:35 17° SW 09:52:35 16° SSW
Cosmos 1553 Rocket 4.0 09:48:29 10° S 09:54:34 78° W 09:56:47 42° N
USA 238 DEB 4.4 09:58:10 10° WSW 10:03:50 43° NW 10:05:36 35° NNW
USA 238 4.3 09:58:14 10° WSW 10:03:56 43° NW 10:05:40 36° NNW
COSMOS 2455 4.3 10:20:18 10° SSW 10:22:56 28° SSW 10:22:56 28° SSW
Cosmos 1980 Rocket 4.2 10:30:34 10° WSW 10:34:56 22° WNW 10:35:43 22° NW
